STARLINK-11403 [DTC] (63060 NORAD) Tracking and Keplerian Element Data

This shows tracking and keplerian element data for the satellite.

Feedback or suggestion? Click here.




ElementValue
Catalog63060
NameSTARLINK-11403 [DTC]
Epoch Orbit4870
Epoch Day354.10725488
Epoch Year2025
RAAN135.1236
Inclination43.0041
Eccentricity0.0003513
Argument of Perigee271.2001
Mean Anonmoly88.8464
Mean Motion15.70926208
Decay Rate0.0017666
L11 63060U 25035J 25354.10725488 .00176660 00000+0 13461-2 0 9996
L22 63060 43.0041 135.1236 0003513 271.2001 88.8464 15.70926208 48702



Live tracking and technical data element details for STARLINK-11403 [DTC] (NORAD 63060). STARLINK-11403 [DTC] can be tracked NOW for your location showing map with azimuth and elevation plus other details from your city location.







IsCatalogInMostPopularTable: catalog: 63060, numindb: 2
Update: records affected: 1



GetName: 63060 STARLINK-11403 [DTC]

Hit Count: updated at: Sun, 08 Feb 2026 08:13:18 GMT